Home   Weather   Boké   Past weeks

Flag for Guinea Past Weather in Boké, Guinea — Yesterday and Last 2 Weeks

Now
82 °F

Haze.


Feels Like: 89 °F
Forecast: N/A
Wind: 9 mph from West

Location: Conakry / Gbessia

Current Time: Jan 24, 2017 at 7:52:34 pm

Latest Report: Jan 24, 2017 at 7:00 pm


Visibility: 3 mi

Pressure: 29.83 "Hg

Humidity: 79%

Dew Point: 75 °F

Location of BokéLocation

Past Weather in Boké — Graph

°F

Boké Temperature Yesterday

Maximum temperature yesterday: 88 °F (at 1:00 pm)
Minimum temperature yesterday: 77 °F (at 4:00 am)
Average temperature yesterday: 82 °F

High & Low Weather Summary for the Past Weeks

 TemperatureHumidityPressure
High93 °F (Jan 20, 2:00 pm)100% (Jan 10, 4:00 am)29.95 "Hg (Jan 10, 4:00 am)
Low72 °F (Jan 10, 7:00 am)29% (Jan 14, 4:00 pm)29.71 "Hg (Jan 14, 4:00 pm)
Average82 °F73%29.83 "Hg
* Reported Jan 9 6:00 pm — Jan 24 6:00 pm, Boké, Weather by CustomWeather, © 2017

Note: Actual official high and low records may vary slightly from our data, if they occured in-between our weather recording intervals... More about our weather records

Advertising

Boké Weather History for the Previous 24 Hours

Scroll right to see more
 ConditionsComfort  
Time TempWeatherWind HumidityBarometerVisibility
6:00 pm
Tue, Jan 24
86 °FSunny.12 mph70%29.83 "Hg10 mi
5:00 pm86 °FSunny.9 mph70%29.83 "Hg10 mi
4:00 pm86 °FPassing clouds.12 mph70%29.83 "HgN/A
3:00 pm88 °FHaze.12 mph66%29.83 "Hg3 mi
1:00 pm88 °FHaze.12 mph59%29.89 "Hg3 mi
12:00 pm86 °FHaze.7 mph70%29.92 "Hg3 mi
11:00 am84 °FHaze.5 mph74%29.92 "Hg3 mi
10:00 am82 °FHaze.2 mph74%29.95 "Hg3 mi
9:00 am77 °FFog.7 mph89%29.92 "Hg2 mi
8:00 am75 °FFog.No wind94%29.92 "Hg2 mi
6:00 am77 °FFog.No wind94%29.89 "Hg2 mi
1:00 am79 °FFog.No wind94%29.92 "Hg2 mi
12:00 am81 °FPassing clouds.No wind84%29.92 "HgN/A
11:00 pm
Mon, Jan 23
81 °FWarm.No wind89%29.92 "HgN/A
10:00 pm81 °FPassing clouds.No wind84%29.89 "HgN/A
9:00 pm81 °FClear.No wind84%29.89 "Hg10 mi
8:00 pm86 °FClear.5 mph70%29.83 "Hg10 mi
7:00 pm86 °FClear.5 mph70%29.83 "Hg10 mi
Weather by CustomWeather, © 2017

See weather overviewHow to use our weather pages